[[{"header":{"parameterUnit":"m.s-1","parameterCategory":1,"la1":30.2991,"la2":30.254,"lo1":-89.0895,"lo2":-89.0444,"dy":0.0017,"dx":0.0017,"nx":28,"ny":28,"refTime":"2024-06-23T21:00:00:Z","depth":0,"parameterNumber":2,"parameterNumberName":"U-component_of_WINDS"},"data":[0,0,0,0,0,0,0,0,0,0,0,0,0,0,0,0,0,0,0,0,0,0,0,0,0,0,0,0,0,0,0,0,0,0,0,0,0,0,0,0,0,0,0,0,0,0,0,0,0,0,0,0,0,0,0,0,0,0,2.9678,2.9678,0,2.9722,2.9723,2.9723,2.969,2.9688,2.9687,2.9685,2.9731,2.9733,2.9736,0,0,0,0,0,0,0,0,0,0,0,0,0,2.9565,2.9568,2.9678,2.9678,2.9679,2.9722,2.9723,2.9724,2.969,2.9688,2.9686,2.9685,2.973,2.9733,2.9736,0,0,0,0,0,0,0,0,0,0,0,0,0,2.9612,2.9568,2.9678,2.9667,2.9667,2.9722,2.9723,2.9724,2.969,2.9688,2.9686,2.9684,2.9729,2.9733,2.9737,2.9804,0,0,2.9748,2.975,0,0,0,0,0,0,0,0,2.961,2.9617,2.9668,2.9668,2.9668,2.9698,2.97,2.9751,2.9691,2.9681,2.9685,2.9683,2.9722,2.9726,2.9739,2.9807,2.9809,2.9749,2.9751,2.9753,2.9754,0,0,0,0,0,0,0,2.9607,2.9615,2.9695,2.9669,2.9669,2.9661,2.9665,2.9709,2.9713,2.9682,2.968,2.9686,2.9721,2.9736,2.974,2.9809,2.9749,2.9752,2.9755,2.9756,2.9938,2.994,0,0,0,0,0,0,2.9604,2.9612,2.9694,2.9697,2.9633,2.9665,2.967,2.9691,2.9713,2.9714,2.9687,2.9684,2.973,2.9736,2.9742,2.9824,2.9753,2.9756,2.9759,2.9935,2.9938,2.9941,0,0,0,0,0,0,2.9602,2.9612,2.9692,2.9654,2.9663,2.9669,2.9693,2.9693,2.9707,2.9717,2.9717,2.9701,2.9729,2.9736,2.979,2.9825,2.9758,2.9762,2.9932,2.9936,2.9939,2.9989,0,0,0,0,0,0,2.9599,2.9611,2.9636,2.9655,2.9666,2.9739,2.9695,2.9695,2.9714,2.971,2.973,2.9731,2.9728,2.9784,2.9794,2.983,2.9765,2.9929,2.9934,2.9938,2.9984,2.9994,3.0003,0,0,0,0,0,2.9595,2.9648,2.9638,2.9648,2.9697,2.9741,2.9748,2.9742,2.9717,2.9743,2.975,2.9731,2.982,2.979,2.98,2.9838,2.9927,2.9932,2.9938,2.998,2.9992,3.0002,0,0,0,0,0,0,2.9633,2.965,2.9639,2.9699,2.9719,2.9735,2.9768,2.9755,2.9782,2.9777,2.9769,2.9774,2.9831,2.9839,2.9806,2.9906,2.9869,2.9877,2.9898,2.991,2.9919,2.9915,2.9768,0,0,0,0,0,2.9648,2.9682,2.9695,2.9748,2.9758,2.9762,2.978,2.9775,2.9795,2.9803,2.9814,2.9834,2.9867,2.9889,2.9919,2.9986,2.9991,3.0017,3.0026,3.0034,3.0041,3.0079,3.0091,2.9959,2.9959,2.9959,0,0,2.968,2.9694,2.9716,2.9756,2.977,2.9807,2.9769,2.9808,2.9835,2.9809,2.9861,2.987,2.9892,2.9953,2.9981,2.9962,3.0078,3.0041,3.0047,3.005,3.0086,3.0099,3.011,2.9963,2.9962,2.9962,0,0,2.9757,2.9771,2.9816,2.9833,2.9856,2.9858,2.987,2.9889,2.9894,2.9946,2.9928,2.996,3.0016,3.0034,3.005,3.0138,3.0123,3.0148,3.0196,3.0233,3.0244,3.0253,3.0286,3.0297,3.0155,3.0155,3.0156,0,2.9794,2.9848,2.9842,2.9883,2.9902,2.9882,2.9929,2.9945,2.9977,2.9991,2.997,3.0043,3.0056,3.0122,3.0144,3.0157,3.0171,3.0146,3.0243,3.0252,3.026,3.0292,3.0304,3.0158,3.0158,3.0158,3.0158,0,2.9893,2.9931,2.9965,2.9998,3.0021,3.0065,3.0067,3.0091,3.0084,3.0089,3.0144,3.016,3.0195,3.021,3.0203,3.0276,3.0264,3.0243,3.0206,3.0276,3.0305,3.0317,3.0163,3.0162,3.0161,3.016,0,0,2.9993,3.0024,3.0037,3.0053,3.0078,3.0108,3.0152,3.0187,3.0209,3.0232,3.027,3.032,3.0302,3.032,3.0316,3.0349,3.0419,3.0324,3.0324,3.0342,3.0503,3.0519,3.0533,3.0409,3.0412,3.0413,3.0502,0,3.0073,3.015,3.0147,3.022,3.0256,3.0238,3.0277,3.0298,3.0304,3.0337,3.0344,3.038,3.0352,3.0364,3.0395,3.0404,3.0452,3.0398,3.0446,3.0447,3.0441,3.0548,3.0565,3.0647,3.0513,3.0515,3.0516,0,3.0175,3.0204,3.028,3.0303,3.0318,3.0353,3.0386,3.0417,3.0441,3.0443,3.0466,3.0457,3.0503,3.0466,3.053,3.0494,3.0514,3.0521,3.0524,3.0529,3.0486,3.0557,3.0673,3.0686,3.0534,3.0533,3.0531,0,3.0243,3.03,3.0354,3.0368,3.0395,3.0421,3.0434,3.0455,3.0478,3.0507,3.0521,3.0555,3.0574,3.0601,3.0602,3.0574,3.0669,3.063,3.0673,3.0673,3.0694,3.0692,3.0816,3.0705,3.0705,3.0705,3.0705,0,3.0332,3.038,3.0385,3.0418,3.0472,3.0469,3.0523,3.0533,3.0553,3.0589,3.0576,3.061,3.0609,3.0644,3.0645,3.07,3.0708,3.0712,3.0712,3.0714,3.0713,3.0727,3.0721,3.0708,3.0708,3.0707,3.0706,0,3.0417,3.0422,3.048,3.0502,3.0509,3.0548,3.0567,3.0599,3.0605,3.0651,3.0662,3.0672,3.0712,3.0716,3.0763,3.0764,3.0831,3.0824,3.0823,3.0822,3.0866,3.0862,3.1002,3.1021,3.0898,3.0899,3.09,0,3.0473,3.051,3.0537,3.0561,3.0575,3.0612,3.0635,3.0635,3.0659,3.0691,3.072,3.076,3.0791,3.0858,3.0869,3.0906,3.0901,3.0948,3.0906,3.0908,3.0903,3.0901,3.0906,3.0956,3.0957,3.0958,3.0959,0,3.0575,3.0576,3.061,3.0645,3.0674,3.0701,3.0727,3.0747,3.075,3.0779,3.0821,3.0845,3.0895,3.0935,3.0971,3.0985,3.0974,3.0972,3.0984,3.0987,3.0985,3.0988,3.0846,3.0969,3.0968,3.0967,3.0966,3.0966,3.0648,3.0681,3.0706,3.0744,3.0764,3.079,3.0822,3.0833,3.0868,3.0908,3.0906,3.0953,3.0978,3.1026,3.1043,3.1081,3.1065,3.1082,3.1087,3.1091,3.1096,3.0979,3.1087,3.1087,3.1087,3.1086,3.1086,0,3.075,3.0766,3.0801,3.0839,3.087,3.0857,3.0886,3.0913,3.0954,3.0979,3.1011,3.1061,3.11,3.1116,3.1155,3.1182,3.1178,3.1193,3.1191,3.1195,3.1107,3.1093,3.1196,3.1196,3.1196,3.1196,3.1196,3.1196,3.0806,3.0862,3.0867,3.0933,3.0948,3.0994,3.1012,3.1036,3.1057,3.1113,3.1146,3.1156,3.1178,3.1219,3.1256,3.1259,3.1275,3.1292,3.1294,3.1212,3.1201,3.119,3.1177,3.1296,3.1296,3.1379,3.1379,3.138]},{"header":{"parameterUnit":"m.s-1","parameterCategory":1,"la1":30.2991,"la2":30.254,"lo1":-89.0895,"lo2":-89.0444,"dy":0.0017,"dx":0.0017,"nx":28,"ny":28,"refTime":"2024-06-23T21:00:00:Z","depth":0,"parameterNumber":3,"parameterNumberName":"V-component_of_WINDS"},"data":[0,0,0,0,0,0,0,0,0,0,0,0,0,0,0,0,0,0,0,0,0,0,0,0,0,0,0,0,0,0,0,0,0,0,0,0,0,0,0,0,0,0,0,0,0,0,0,0,0,0,0,0,0,0,0,0,0,0,-0.3293,-0.3293,0,-0.3353,-0.3353,-0.3354,-0.341,-0.3411,-0.3412,-0.3412,-0.3474,-0.3474,-0.3475,0,0,0,0,0,0,0,0,0,0,0,0,0,-0.3227,-0.3228,-0.3292,-0.3293,-0.3294,-0.3353,-0.3353,-0.3354,-0.341,-0.3411,-0.3412,-0.3413,-0.3473,-0.3474,-0.3476,0,0,0,0,0,0,0,0,0,0,0,0,0,-0.3268,-0.3228,-0.3292,-0.3329,-0.3333,-0.3352,-0.3353,-0.3355,-0.341,-0.3411,-0.3412,-0.3413,-0.3473,-0.3474,-0.3476,-0.3464,0,0,-0.348,-0.3481,0,0,0,0,0,0,0,0,-0.3265,-0.327,-0.3323,-0.3327,-0.3331,-0.3375,-0.3353,-0.3391,-0.341,-0.3381,-0.3413,-0.3414,-0.344,-0.3444,-0.3453,-0.3466,-0.3469,-0.348,-0.3481,-0.3482,-0.3482,0,0,0,0,0,0,0,-0.3262,-0.3268,-0.3316,-0.3324,-0.3329,-0.3343,-0.335,-0.336,-0.3404,-0.3383,-0.3388,-0.3394,-0.3442,-0.3452,-0.3455,-0.347,-0.348,-0.3482,-0.3482,-0.3483,-0.3478,-0.3477,0,0,0,0,0,0,-0.3254,-0.3265,-0.3314,-0.3318,-0.33,-0.3343,-0.3351,-0.336,-0.3404,-0.3411,-0.3393,-0.3396,-0.3449,-0.3453,-0.3457,-0.3447,-0.3482,-0.3483,-0.3484,-0.3479,-0.3478,-0.3477,0,0,0,0,0,0,-0.3252,-0.3258,-0.3312,-0.3293,-0.3301,-0.3343,-0.3353,-0.3361,-0.337,-0.3411,-0.3419,-0.3394,-0.345,-0.3455,-0.3462,-0.345,-0.3484,-0.3485,-0.348,-0.3479,-0.3477,-0.3425,0,0,0,0,0,0,-0.325,-0.3257,-0.3252,-0.3292,-0.3302,-0.3315,-0.3352,-0.3361,-0.3372,-0.3377,-0.3415,-0.3422,-0.3451,-0.346,-0.3463,-0.3452,-0.3486,-0.3481,-0.3479,-0.3478,-0.3428,-0.3422,-0.3417,0,0,0,0,0,-0.3248,-0.3235,-0.3252,-0.3258,-0.3297,-0.3314,-0.332,-0.3354,-0.3371,-0.3367,-0.3394,-0.3421,-0.345,-0.346,-0.3465,-0.3454,-0.3482,-0.348,-0.3478,-0.3431,-0.3423,-0.3417,0,0,0,0,0,0,-0.3192,-0.3241,-0.326,-0.326,-0.3283,-0.3324,-0.332,-0.3345,-0.3363,-0.3366,-0.3408,-0.3416,-0.3418,-0.3437,-0.3446,-0.3445,-0.347,-0.3469,-0.3433,-0.3426,-0.342,-0.3416,-0.3487,0,0,0,0,0,-0.318,-0.319,-0.3232,-0.3228,-0.3239,-0.3277,-0.3286,-0.331,-0.3335,-0.3345,-0.3372,-0.3396,-0.3411,-0.3419,-0.3435,-0.3431,-0.3441,-0.3426,-0.3421,-0.3416,-0.3414,-0.3414,-0.3409,-0.3469,-0.3469,-0.3469,0,0,-0.3155,-0.3183,-0.3186,-0.3218,-0.3238,-0.3248,-0.3285,-0.3293,-0.3301,-0.3347,-0.3355,-0.3375,-0.3404,-0.3406,-0.3408,-0.3422,-0.34,-0.3413,-0.3409,-0.341,-0.3411,-0.3406,-0.3401,-0.3468,-0.3468,-0.3468,0,0,-0.3114,-0.3136,-0.3135,-0.3155,-0.3186,-0.3212,-0.3212,-0.325,-0.3265,-0.3274,-0.3309,-0.3319,-0.3343,-0.3363,-0.3376,-0.3344,-0.3369,-0.3348,-0.3318,-0.3318,-0.3313,-0.3309,-0.3298,-0.3294,-0.3346,-0.3346,-0.3346,0,-0.3079,-0.3095,-0.3132,-0.3139,-0.3152,-0.3194,-0.3194,-0.3212,-0.3246,-0.3254,-0.3269,-0.3301,-0.3323,-0.3331,-0.3323,-0.3332,-0.3333,-0.3344,-0.3311,-0.3307,-0.3304,-0.3294,-0.329,-0.3343,-0.3343,-0.3344,-0.3344,0,-0.305,-0.3061,-0.3057,-0.3089,-0.3102,-0.3105,-0.3143,-0.3152,-0.3175,-0.32,-0.3209,-0.3237,-0.326,-0.3264,-0.3286,-0.3274,-0.3282,-0.3303,-0.3329,-0.3295,-0.3286,-0.3283,-0.3339,-0.334,-0.3341,-0.3342,0,0,-0.2975,-0.3029,-0.3027,-0.3043,-0.308,-0.3089,-0.3095,-0.3118,-0.3124,-0.3147,-0.3153,-0.3173,-0.3194,-0.3208,-0.3234,-0.3234,-0.3207,-0.3255,-0.3257,-0.3246,-0.3196,-0.318,-0.3175,-0.3225,-0.3224,-0.3223,-0.3194,0,-0.2941,-0.2953,-0.2988,-0.299,-0.3,-0.3041,-0.3046,-0.307,-0.3093,-0.3106,-0.3132,-0.3146,-0.3172,-0.3181,-0.3183,-0.321,-0.3198,-0.3213,-0.3231,-0.3231,-0.3222,-0.317,-0.3153,-0.3124,-0.3191,-0.319,-0.319,0,-0.2902,-0.2923,-0.2926,-0.2964,-0.297,-0.2974,-0.2998,-0.3009,-0.3038,-0.3055,-0.3072,-0.31,-0.3109,-0.3133,-0.3146,-0.3155,-0.3165,-0.3179,-0.3179,-0.3182,-0.3208,-0.3172,-0.3115,-0.311,-0.3185,-0.3185,-0.3186,0,-0.2848,-0.2876,-0.2882,-0.2894,-0.2938,-0.294,-0.2959,-0.2988,-0.3,-0.3021,-0.303,-0.3051,-0.3063,-0.3079,-0.3113,-0.3128,-0.3122,-0.3149,-0.3137,-0.3136,-0.3134,-0.3133,-0.3078,-0.314,-0.314,-0.314,-0.314,0,-0.2806,-0.2806,-0.2858,-0.2862,-0.2864,-0.2903,-0.2904,-0.2927,-0.2953,-0.2962,-0.2998,-0.3006,-0.305,-0.3063,-0.309,-0.3097,-0.3102,-0.3116,-0.3123,-0.3113,-0.3111,-0.3119,-0.3122,-0.3139,-0.3139,-0.3139,-0.3139,0,-0.2745,-0.2779,-0.2789,-0.283,-0.2841,-0.2841,-0.2877,-0.2882,-0.2908,-0.2919,-0.2924,-0.2964,-0.2982,-0.3017,-0.3044,-0.3062,-0.3063,-0.3075,-0.3053,-0.3057,-0.3043,-0.3044,-0.2991,-0.2986,-0.3051,-0.305,-0.305,0,-0.2715,-0.2717,-0.2759,-0.2768,-0.2785,-0.2799,-0.2811,-0.2851,-0.2862,-0.2895,-0.2896,-0.2917,-0.2935,-0.296,-0.2992,-0.3013,-0.3027,-0.3007,-0.303,-0.302,-0.3027,-0.3026,-0.3027,-0.3001,-0.3,-0.3,-0.2999,0,-0.266,-0.2678,-0.2694,-0.2717,-0.2731,-0.2751,-0.2773,-0.2778,-0.2823,-0.2834,-0.2852,-0.2866,-0.2894,-0.2914,-0.294,-0.2959,-0.2987,-0.2992,-0.299,-0.2979,-0.2966,-0.2973,-0.3039,-0.2993,-0.2993,-0.2994,-0.2994,-0.2994,-0.2615,-0.2618,-0.2649,-0.2666,-0.2687,-0.2707,-0.2714,-0.2741,-0.2757,-0.2783,-0.2806,-0.2822,-0.2851,-0.2889,-0.2907,-0.292,-0.2934,-0.2931,-0.293,-0.2929,-0.2925,-0.2964,-0.2925,-0.2925,-0.2926,-0.2926,-0.2926,0,-0.2561,-0.2583,-0.2599,-0.2629,-0.2643,-0.2668,-0.2694,-0.2704,-0.2718,-0.2743,-0.276,-0.2782,-0.2801,-0.2835,-0.2858,-0.2862,-0.2875,-0.2867,-0.2867,-0.2871,-0.2911,-0.2911,-0.2856,-0.2856,-0.2856,-0.2856,-0.2856,-0.2856,-0.2535,-0.2543,-0.2564,-0.2582,-0.2605,-0.2621,-0.2634,-0.2652,-0.2673,-0.2695,-0.2711,-0.2734,-0.2763,-0.2788,-0.2807,-0.2817,-0.2823,-0.281,-0.2824,-0.2861,-0.2868,-0.2874,-0.2874,-0.2812,-0.2811,-0.2782,-0.2782,-0.2782]}]]